Saguache, CO

7:25 AM MDT on October 20, 2017 (GMT -0600)
Saguache

Weather History for K04V - May, 2014

Change the Weather History Date:

Sunday, May 18, 2014

  Actual Average (KALS) Record (KALS)
Temperature  
Mean Temperature 59 °F -  
Max Temperature 77 °F 70 °F 85 °F (1970)
Min Temperature 41 °F 32 °F 21 °F (1978)
Degree Days  
Heating Degree Days 6    
Growing Degree Days 9 (Base 50)    
Moisture  
Dew Point 21 °F    
Average Humidity 26    
Maximum Humidity 49    
Minimum Humidity 10    
Precipitation  
Precipitation 0.00 in - - ()
Sea Level Pressure  
Sea Level Pressure 30.05 in    
Wind  
Wind Speed 10 mph (WNW)    
Max Wind Speed 23 mph    
Max Gust Speed 30 mph    
Visibility 10 miles    
Events      
Averages and records for this station are not official NWS values.
T = Trace of Precipitation, MM = Missing Value Source: NWS Daily Summary

Daily Weather History Graph

Daily Weather History Graph

Search for Another Location

Airport or City:

Trip Planner

Search our weather history database for the weather conditions in past years. The results will help you decide how hot, cold, wet, or windy it might be!

Date:

Astronomy

May. 18, 2014 Rise Set
Actual Time 5:51 AM MDT 8:11 PM MDT
Civil Twilight 5:21 AM MDT 8:41 PM MDT
Nautical Twilight 4:45 AM MDT 9:17 PM MDT
Astronomical Twilight 4:04 AM MDT 9:58 PM MDT
Moon No Moon Rise 9:42 AM MDT (5/18)
Length of Visible Light 15h 19m
Length of Day
14h 19m
Waning Gibbous, 80% of the Moon is Illuminated
May 18
Waning Gibbous
May 21
Last Quarter
May 28
New
Jun 5
First Quarter
Jun 12
Full

Hourly Weather History & Observations

Time (MDT) Temp. Windchill Dew Point Humidity Pressure Visibility Wind Dir Wind Speed Gust Speed Precip Events Conditions
12:15 AM 50.0 °F - 23.0 °F 35% 30.12 in 10.0 mi NNE 9.2 mph - N/A   Clear
12:35 AM 48.2 °F - 23.0 °F 37% 30.12 in 10.0 mi NNW 12.7 mph - N/A   Clear
12:55 AM 48.2 °F - 21.2 °F 34% 30.12 in 10.0 mi North 8.1 mph - N/A   Clear
1:15 AM 46.4 °F 41.9 °F 23.0 °F 40% 30.12 in 10.0 mi NNW 9.2 mph - N/A   Clear
1:35 AM 46.4 °F 41.5 °F 23.0 °F 40% 30.11 in 10.0 mi NW 10.4 mph - N/A   Clear
1:55 AM 46.4 °F 41.1 °F 23.0 °F 40% 30.11 in 10.0 mi NNW 11.5 mph - N/A   Clear
2:14 AM 46.4 °F 40.4 °F 23.0 °F 40% 30.11 in 10.0 mi NNW 13.8 mph - N/A   Clear
2:34 AM 46.4 °F 41.1 °F 23.0 °F 40% 30.11 in 10.0 mi NNW 11.5 mph - N/A   Clear
2:55 AM 46.4 °F 40.1 °F 23.0 °F 40% 30.11 in 10.0 mi NNW 15.0 mph - N/A   Clear
3:15 AM 48.2 °F - 23.0 °F 37% 30.11 in 10.0 mi NNW 11.5 mph - N/A   Scattered Clouds
3:35 AM 46.4 °F 41.5 °F 21.2 °F 37% 30.11 in 10.0 mi NNW 10.4 mph - N/A   Scattered Clouds
3:55 AM 46.4 °F 41.1 °F 23.0 °F 40% 30.10 in 10.0 mi North 11.5 mph - N/A   Clear
4:15 AM 42.8 °F 37.5 °F 21.2 °F 42% 30.10 in 10.0 mi NNW 9.2 mph - N/A   Clear
4:34 AM 44.6 °F 38.8 °F 23.0 °F 43% 30.10 in 10.0 mi NNW 11.5 mph - N/A   Clear
4:54 AM 42.8 °F 38.0 °F 21.2 °F 42% 30.09 in 10.0 mi NW 8.1 mph - N/A   Clear
5:15 AM 42.8 °F 36.2 °F 23.0 °F 46% 30.10 in 10.0 mi NW 12.7 mph - N/A   Clear
5:35 AM 42.8 °F 38.0 °F 23.0 °F 46% 30.10 in 10.0 mi North 8.1 mph - N/A   Clear
5:54 AM 42.8 °F 41.1 °F 19.4 °F 39% 30.10 in 10.0 mi North 3.5 mph - N/A   Clear
6:35 AM 41.0 °F 35.2 °F 23.0 °F 49% 30.11 in 10.0 mi NW 9.2 mph - N/A   Clear
6:55 AM 42.8 °F 37.0 °F 23.0 °F 46% 30.11 in 10.0 mi NNW 10.4 mph - N/A   Clear
7:15 AM 46.4 °F 41.5 °F 23.0 °F 40% 30.11 in 10.0 mi NW 10.4 mph - N/A   Clear
7:35 AM 48.2 °F - 23.0 °F 37% 30.11 in 10.0 mi NW 9.2 mph - N/A   Clear
7:55 AM 51.8 °F - 23.0 °F 33% 30.11 in 10.0 mi NW 9.2 mph - N/A   Clear
8:15 AM 51.8 °F - 23.0 °F 33% 30.11 in 10.0 mi NW 9.2 mph - N/A   Clear
8:35 AM 53.6 °F - 24.8 °F 33% 30.12 in 10.0 mi WNW 4.6 mph - N/A   Clear
8:55 AM 55.4 °F - 24.8 °F 31% 30.12 in 10.0 mi Calm Calm - N/A   Clear
9:15 AM 57.2 °F - 26.6 °F 31% 30.12 in 10.0 mi South 6.9 mph - N/A   Clear
9:35 AM 59.0 °F - 24.8 °F 27% 30.12 in 10.0 mi SE 8.1 mph - N/A   Clear
9:54 AM 60.8 °F - 24.8 °F 25% 30.11 in 10.0 mi SE 10.4 mph - N/A   Clear
10:15 AM 62.6 °F - 26.6 °F 26% 30.10 in 10.0 mi SSE 9.2 mph - N/A   Clear
10:35 AM 62.6 °F - 26.6 °F 26% 30.10 in 10.0 mi SSE 10.4 mph 20.7 mph N/A   Clear
10:55 AM 62.6 °F - 26.6 °F 26% 30.09 in 10.0 mi SSE 10.4 mph - N/A   Clear
11:15 AM 64.4 °F - 26.6 °F 24% 30.09 in 10.0 mi South 10.4 mph - N/A   Clear
11:35 AM 66.2 °F - 24.8 °F 21% 30.09 in 10.0 mi SSE 10.4 mph - N/A   Clear
11:55 AM 66.2 °F - 26.6 °F 23% 30.08 in 10.0 mi SSE 10.4 mph - N/A   Clear
12:15 PM 66.2 °F - 26.6 °F 23% 30.07 in 10.0 mi South 9.2 mph - N/A   Clear
12:35 PM 68.0 °F - 26.6 °F 21% 30.05 in 10.0 mi South 8.1 mph - N/A   Clear
12:55 PM 68.0 °F - 26.6 °F 21% 30.04 in 10.0 mi ESE 6.9 mph - N/A   Clear
1:15 PM 71.6 °F - 24.8 °F 17% 30.03 in 10.0 mi SSW 10.4 mph - N/A   Clear
1:35 PM 71.6 °F - 24.8 °F 17% 30.02 in 10.0 mi SSW 3.5 mph 16.1 mph N/A   Clear
1:55 PM 73.4 °F - 24.8 °F 16% 30.00 in 10.0 mi South 9.2 mph 19.6 mph N/A   Scattered Clouds
2:15 PM 73.4 °F - 21.2 °F 14% 29.98 in 10.0 mi South 9.2 mph - N/A   Scattered Clouds
2:35 PM 73.4 °F - 19.4 °F 13% 29.97 in 10.0 mi South 11.5 mph 21.9 mph N/A   Scattered Clouds
2:53 PM 77.0 °F - 19.4 °F 12% 29.97 in 10.0 mi West 16.1 mph 26.5 mph N/A   Clear
3:15 PM 75.2 °F - 19.4 °F 12% 29.95 in 10.0 mi West 19.6 mph 29.9 mph N/A   Scattered Clouds
3:35 PM 75.2 °F - 21.2 °F 13% 29.96 in 10.0 mi WSW 19.6 mph 26.5 mph N/A   Scattered Clouds
3:55 PM 73.4 °F - 21.2 °F 14% 29.97 in 10.0 mi WNW 19.6 mph 23.0 mph N/A   Scattered Clouds
4:13 PM 71.6 °F - 21.2 °F 15% 29.97 in 10.0 mi West 15.0 mph 24.2 mph N/A   Clear
4:35 PM 73.4 °F - 19.4 °F 13% 29.97 in 10.0 mi WNW 16.1 mph 23.0 mph N/A   Clear
4:55 PM 75.2 °F - 17.6 °F 11% 29.97 in 10.0 mi West 16.1 mph 26.5 mph N/A   Clear
5:15 PM 75.2 °F - 15.8 °F 11% 29.97 in 10.0 mi NW 11.5 mph 19.6 mph N/A   Clear
5:35 PM 73.4 °F - 14.0 °F 10% 29.97 in 10.0 mi WNW 11.5 mph - N/A   Clear
5:55 PM 71.6 °F - 17.6 °F 13% 29.97 in 10.0 mi West 17.3 mph 21.9 mph N/A   Clear
6:14 PM 69.8 °F - 15.8 °F 13% 29.96 in 10.0 mi West 23.0 mph 27.6 mph N/A   Clear
6:35 PM 69.8 °F - 17.6 °F 14% 29.97 in 10.0 mi West 20.7 mph 26.5 mph N/A   Clear
6:55 PM 68.0 °F - 15.8 °F 13% 29.97 in 10.0 mi West 19.6 mph 25.3 mph N/A   Clear
7:15 PM 68.0 °F - 14.0 °F 12% 29.98 in 10.0 mi West 16.1 mph 21.9 mph N/A   Clear
7:35 PM 66.2 °F - 14.0 °F 13% 29.98 in 10.0 mi West 16.1 mph 25.3 mph N/A   Clear
7:55 PM 64.4 °F - 15.8 °F 15% 29.99 in 10.0 mi West 9.2 mph - N/A   Clear
8:14 PM 62.6 °F - 17.6 °F 18% 30.00 in 10.0 mi West 9.2 mph - N/A   Clear
8:35 PM 59.0 °F - 19.4 °F 22% 29.99 in 10.0 mi West 8.1 mph - N/A   Clear
8:55 PM 59.0 °F - 17.6 °F 20% 29.98 in 10.0 mi West 5.8 mph - N/A   Clear
9:15 PM 57.2 °F - 15.8 °F 20% 29.98 in 10.0 mi NW 4.6 mph - N/A   Clear
9:34 PM 53.6 °F - 14.0 °F 21% 29.98 in 10.0 mi NNW 4.6 mph - N/A   Clear
9:55 PM 50.0 °F - 12.2 °F 22% 29.98 in 10.0 mi North 4.6 mph - N/A   Clear
10:14 PM 48.2 °F - 12.2 °F 24% 30.00 in 10.0 mi NNW 4.6 mph - N/A   Clear
10:35 PM 48.2 °F - 12.2 °F 24% 30.00 in 10.0 mi North 4.6 mph - N/A   Clear
10:55 PM 44.6 °F 40.2 °F 12.2 °F 27% 30.00 in 10.0 mi North 8.1 mph - N/A   Clear
11:15 PM 46.4 °F 42.9 °F 12.2 °F 25% 29.99 in 10.0 mi North 6.9 mph - N/A   Clear
11:34 PM 44.6 °F 41.4 °F 12.2 °F 27% 30.00 in 10.0 mi NNW 5.8 mph - N/A   Clear
11:55 PM 44.6 °F 40.7 °F 15.8 °F 31% 30.00 in 10.0 mi NW 6.9 mph - N/A   Clear